Temp
73 73 73 72 72 72 74 76 75 75 76 76 75 76 76 76 76 76 76 75 74 72 72 73 73 73 76 72 73 74 75 74 75 75 75 75 75 75 75 74 73 73 73 72 72 73 72 73 73 73 73 73 74 69 71 74 73 72 71 71 71 73
73 73 73 73 73 73 73 74 71 72 73 74 75 75 74 72 75 72 75 74 72 73 71 71 72 75 72 73 74 74 75 75 74 74 74 75 75 75 75 74 74 73 73 72 72 67 68 72 73 73 73 74 70 69 73 73 73 72 72 70 71 73
74 73 73 73 73 73 72 71 71 72 73 74 74 73 72 73 70 71 72 72 73 72 72 72 72 73 73 74 73 74 75 75 74 75 74 74 75 75 75 74 74 73 72 72 68 67 67 68 68 73 73 70 67 69 74 73 72 71 71 71 70 75
74 73 73 72 72 71 71 71 71 71 71 71 71 72 70 70 70 71 72 71 71 72 72 72 76 76 77 73 72 74 74 75 75 74 74 73 74 74 75 74 74 73 71 71 68 67 70 70 69 69 69 68 68 71 73 72 72 71 71 73 72 75
73 73 72 72 72 70 71 70 70 71 71 70 71 71 70 70 70 70 70 71 71 72 71 71 72 72 71 70 69 69 70 70 69 69 73 68 69 72 70 70 69 70 68 69 69 70 71 70 69 71 70 69 71 74 73 72 72 71 70 70 71 74
73 72 71 71 70 72 70 69 70 70 70 70 70 69 68 66 66 67 68 70 70 69 70 70 69 70 70 69 69 68 68 69 69 69 71 69 68 69 69 69 70 69 68 69 70 71 72 71 71 70 70 71 72 74 72 71 71 70 69 69 72 74
72 71 71 71 70 69 69 69 69 70 69 68 69 68 67 66 67 67 67 68 68 67 68 68 69 68 68 68 68 68 67 68 68 69 70 69 69 69 69 69 68 69 69 70 72 74 74 75 74 74 72 75 74 74 71 71 71 70 69 69 72 75
71 70 70 71 70 69 68 69 70 71 69 70 69 68 66 66 67 66 67 67 70 67 67 67 68 68 67 67 68 68 68 68 69 69 69 69 69 68 70 70 70 70 71 72 75 76 76 77 76 75 76 76 75 73 71 71 70 70 69 68 71 74
71 70 70 70 69 69 69 68 68 67 68 71 68 68 67 67 66 67 67 67 68 67 67 67 66 67 67 67 67 67 67 66 66 67 68 69 70 70 70 71 71 70 71 72 72 74 74 76 75 74 76 76 74 73 71 70 70 70 69 68 69 72
71 70 70 70 69 68 68 67 68 68 69 70 67 68 67 66 66 66 66 67 67 67 66 66 66 67 67 67 67 67 67 66 67 67 66 68 69 70 69 69 70 70 71 72 72 71 72 73 74 74 75 75 74 73 71 70 70 70 69 68 68 71
71 71 70 70 70 69 69 68 68 68 68 67 68 68 67 66 66 66 67 67 67 67 66 66 66 66 67 67 67 67 67 67 66 66 67 66 66 67 68 68 70 70 71 71 70 69 71 72 72 74 74 75 74 72 72 71 70 70 69 68 67 68
71 71 71 71 71 69 69 69 69 69 68 68 68 67 66 65 66 66 67 66 66 66 67 66 66 66 66 67 67 67 67 67 66 67 67 67 67 67 67 69 71 71 71 70 68 70 70 71 72 73 74 75 71 68 70 70 70 69 69 68 67 67
71 71 70 70 69 70 70 70 69 69 68 68 67 67 65 66 65 65 67 67 66 67 66 66 66 67 67 67 67 67 67 67 67 67 67 67 67 66 67 68 70 72 72 68 70 69 72 68 68 68 72 72 69 68 69 72 70 69 68 68 67 67
71 70 70 70 70 70 70 70 70 69 69 67 67 66 66 66 67 67 67 67 66 66 66 66 67 68 68 67 67 66 66 66 67 67 67 66 66 66 67 68 70 70 73 69 70 69 64 65 66 68 69 70 69 69 70 71 70 69 69 68 68 67
72 70 71 70 71 70 70 70 70 68 67 67 67 66 66 66 66 66 66 66 66 66 66 66 67 67 67 67 66 65 65 66 67 66 67 67 67 66 66 67 68 69 70 68 67 65 64 65 67 67 66 65 66 66 66 67 69 69 70 68 68 67
71 70 70 70 70 71 71 70 70 70 68 67 67 66 66 66 66 66 66 65 66 66 66 67 67 67 67 67 65 65 66 66 67 67 67 67 68 67 67 67 69 69 67 68 66 63 65 65 65 65 64 65 65 66 66 66 67 69 69 69 68 68
70 70 70 70 70 70 70 70 70 70 68 68 67 66 66 67 67 67 66 65 66 67 67 68 68 68 67 67 66 65 66 67 67 67 67 67 67 67 67 68 68 68 68 65 65 64 64 65 64 64 64 66 66 66 66 66 65 65 70 69 68 68
70 70 70 70 70 70 70 70 70 70 70 68 67 67 66 66 67 66 66 66 67 68 68 68 69 68 67 67 66 65 66 67 68 67 67 67 67 67 67 66 66 67 67 64 63 63 63 63 63 62 63 65 65 65 65 65 65 67 65 67 67 67
70 69 69 70 70 70 71 70 70 70 69 68 67 67 66 66 66 66 66 67 68 68 68 68 69 68 67 66 65 65 65 66 67 67 67 66 66 67 66 66 66 65 65 65 65 64 64 64 63 63 64 64 64 64 66 65 66 65 65 65 66 68
70 70 70 70 70 70 70 69 68 68 68 68 67 67 67 66 66 66 67 68 69 68 68 68 68 68 67 66 65 65 65 66 66 66 66 66 66 66 66 65 65 65 64 64 65 65 64 63 62 62 62 63 64 65 66 65 64 64 65 65 66 66
70 70 70 69 69 68 68 67 67 68 67 68 68 68 67 67 67 67 68 69 69 68 68 68 69 68 67 67 66 65 64 65 66 67 66 66 66 66 66 66 65 65 64 64 64 65 65 64 62 61 62 62 63 65 65 66 64 64 65 64 65 65
70 70 70 70 69 68 69 68 68 69 70 69 68 68 67 68 68 70 70 70 69 68 68 68 68 68 67 66 65 65 65 65 66 67 67 67 66 67 66 66 66 64 65 65 63 65 65 63 60 60 60 59 61 63 64 64 64 64 64 64 65 65
70 69 69 71 68 68 67 68 67 67 67 68 70 71 71 71 71 70 70 70 69 68 68 68 68 68 67 66 66 66 66 66 66 67 66 65 66 65 66 66 66 65 64 64 64 65 64 65 61 62 60 59 58 58 60 61 63 64 64 65 64 64
69 69 69 70 70 69 69 68 69 68 68 69 69 70 71 70 70 69 69 69 69 69 69 68 69 68 68 67 66 66 66 66 66 67 66 65 65 65 65 65 66 65 64 62 63 62 65 64 63 61 56 58 58 58 56 58 59 62 63 64 63 63
68 69 69 69 68 68 68 67 68 68 69 68 69 68 67 67 68 69 69 68 68 69 69 69 69 69 68 67 67 66 66 66 66 66 66 65 65 65 66 66 66 65 65 63 62 62 64 64 63 64 61 59 56 56 57 57 59 59 62 62 63 63
69 69 70 70 70 69 68 67 67 65 65 64 64 65 66 66 66 66 67 69 69 69 69 69 69 69 69 68 66 66 65 65 65 65 66 66 66 66 65 65 66 66 65 65 64 61 61 64 63 63 63 63 62 58 58 59 60 54 61 63 63 63
69 69 70 70 72 70 69 69 67 66 66 66 66 67 68 68 68 68 69 68 69 69 70 69 69 69 68 68 67 65 65 65 66 65 65 65 66 66 65 65 66 65 65 65 64 60 61 62 63 62 63 63 63 64 63 60 56 57 56 60 62 62
67 69 70 71 72 71 70 69 67 66 67 67 67 67 69 69 68 69 68 68 68 69 70 70 70 69 68 65 63 63 65 64 64 65 65 65 65 65 65 65 65 66 65 65 64 62 61 62 61 61 62 62 63 63 62 61 62 60 59 57 58 62
67 67 68 69 70 71 71 70 69 68 67 67 67 68 68 69 68 67 67 67 68 68 69 68 67 67 66 65 64 64 64 64 64 65 66 65 65 65 65 64 64 64 64 64 64 63 62 62 62 61 61 61 62 61 61 62 62 61 58 57 58 59
68 68 68 68 68 68 68 68 69 69 68 67 67 67 67 66 66 66 65 65 65 66 66 65 65 66 65 65 65 65 65 64 64 65 65 65 65 65 65 65 65 64 64 64 64 64 63 62 63 63 63 62 60 61 61 61 60 60 59 61 58 58
67 68 69 69 69 67 68 69 69 69 68 67 66 66 65 64 63 63 64 64 65 66 66 65 63 64 64 66 65 65 64 65 65 66 64 63 64 63 64 64 65 65 65 63 63 64 63 63 63 63 63 62 61 62 61 60 60 60 59 59 58 58
68 68 68 69 68 67 69 69 69 69 69 68 67 66 65 65 63 63 63 63 64 65 66 65 62 63 64 64 64 64 65 65 66 65 64 64 64 65 64 64 63 64 64 63 64 64 63 63 63 63 63 63 63 63 62 62 62 63 61 61 61 58
68 69 69 69 69 69 69 69 68 69 68 67 68 68 67 66 65 64 64 63 63 63 64 63 61 62 62 63 63 63 64 65 65 65 64 64 64 65 64 64 64 63 63 63 63 64 63 63 63 62 62 63 63 63 62 62 63 63 63 62 61 58
67 68 69 69 69 68 68 69 68 68 69 68 67 66 65 66 66 65 64 63 63 63 63 63 62 61 62 63 63 64 65 64 64 64 64 64 65 65 65 64 64 63 63 63 64 64 63 64 63 63 63 62 62 62 62 63 63 63 62 62 60 60
65 66 67 67 67 67 68 69 68 67 66 66 65 65 65 68 68 67 65 64 64 63 63 63 61 63 63 63 63 63 63 63 64 64 64 64 64 64 65 65 65 64 64 64 64 64 63 63 63 63 63 63 63 63 63 64 64 64 65 64 64 61
64 64 65 65 65 65 65 66 65 65 65 64 64 64 65 65 66 66 65 64 63 63 63 64 62 63 63 63 63 63 63 63 64 64 65 64 64 64 64 65 64 64 63 65 64 64 64 63 64 64 64 63 63 63 64 65 66 66 66 64 65 63
63 63 63 63 63 65 66 65 64 65 65 65 66 65 65 65 65 65 64 64 64 63 63 63 62 62 62 63 63 63 62 63 63 64 65 64 64 64 64 63 63 63 63 64 64 63 63 63 63 63 63 64 63 64 64 66 66 66 64 63 64 63
MSLP
1015.22 1015.22 1015.30 1015.54 1015.90 1016.14 1016.22 1016.34 1016.54 1016.70 1016.86 1016.98 1017.02 1017.02 1017.02 1017.02 1017.02 1016.98 1016.94 1016.98 1017.06 1017.26 1017.38 1017.54 1017.62 1017.70 1017.74 1017.90 1018.02 1018.14 1018.18 1018.26 1018.34 1018.42 1018.50 1018.58 1018.62 1018.74 1018.86 1018.98 1019.14 1019.22 1019.26 1019.18 1019.10 1019.02 1018.98 1018.94 1018.90 1018.82 1018.82 1018.90 1018.98 1019.14 1019.18 1019.26 1019.42 1019.74 1019.94 1020.10 1020.22 1020.34
1015.26 1015.22 1015.38 1015.70 1016.06 1016.18 1016.30 1016.50 1016.74 1016.78 1016.82 1016.94 1016.98 1017.02 1017.14 1017.18 1017.10 1017.06 1016.94 1016.90 1016.98 1017.06 1017.30 1017.42 1017.50 1017.50 1017.66 1017.78 1017.98 1018.10 1018.18 1018.18 1018.30 1018.38 1018.50 1018.58 1018.62 1018.74 1018.82 1018.98 1019.14 1019.26 1019.34 1019.26 1019.14 1019.06 1018.98 1018.94 1018.86 1018.78 1018.74 1018.78 1019.02 1019.10 1019.18 1019.34 1019.46 1019.74 1019.98 1020.18 1020.22 1020.30
1015.22 1015.22 1015.50 1015.86 1016.14 1016.22 1016.38 1016.62 1016.82 1016.86 1016.86 1016.94 1016.98 1017.02 1017.10 1017.10 1017.14 1017.10 1016.98 1016.82 1016.74 1016.78 1016.98 1017.18 1017.34 1017.30 1017.42 1017.62 1017.90 1018.02 1018.06 1018.14 1018.26 1018.38 1018.54 1018.58 1018.66 1018.74 1018.86 1019.02 1019.14 1019.30 1019.38 1019.38 1019.26 1019.14 1019.02 1018.98 1018.90 1018.74 1018.70 1018.86 1019.18 1019.22 1019.26 1019.34 1019.46 1019.74 1020.02 1020.14 1020.30 1020.38
1015.10 1015.22 1015.58 1016.02 1016.18 1016.26 1016.42 1016.62 1016.82 1016.86 1016.90 1016.94 1016.98 1016.98 1016.98 1017.02 1017.06 1017.06 1016.94 1016.82 1016.70 1016.62 1016.74 1016.94 1016.98 1017.10 1017.30 1017.54 1017.74 1017.86 1017.98 1018.10 1018.22 1018.34 1018.50 1018.62 1018.66 1018.78 1018.90 1019.02 1019.18 1019.30 1019.42 1019.46 1019.42 1019.26 1019.10 1019.02 1018.94 1018.82 1018.78 1018.90 1019.26 1019.34 1019.42 1019.42 1019.54 1019.74 1019.94 1020.10 1020.26 1020.34
1015.06 1015.30 1015.70 1016.02 1016.26 1016.42 1016.46 1016.62 1016.78 1016.82 1016.86 1016.90 1016.94 1016.90 1016.90 1016.94 1017.02 1017.02 1016.98 1016.94 1016.86 1016.74 1016.74 1016.78 1016.86 1017.02 1017.38 1017.66 1017.82 1017.98 1018.02 1018.10 1018.18 1018.38 1018.50 1018.70 1018.74 1018.78 1018.90 1019.06 1019.18 1019.26 1019.42 1019.50 1019.50 1019.38 1019.22 1019.18 1018.98 1018.90 1018.82 1018.82 1019.30 1019.38 1019.50 1019.42 1019.54 1019.70 1019.94 1020.10 1020.22 1020.34
1015.26 1015.54 1015.82 1016.06 1016.26 1016.38 1016.54 1016.74 1016.82 1016.78 1016.86 1016.86 1016.82 1016.82 1016.86 1016.90 1017.02 1017.10 1017.10 1016.98 1017.02 1017.02 1016.90 1016.86 1016.94 1017.14 1017.58 1017.86 1018.02 1018.10 1018.18 1018.14 1018.22 1018.38 1018.46 1018.74 1018.74 1018.74 1018.86 1018.98 1019.10 1019.30 1019.38 1019.42 1019.46 1019.34 1019.22 1019.18 1019.06 1018.90 1018.82 1018.74 1019.26 1019.42 1019.46 1019.50 1019.58 1019.74 1019.94 1020.14 1020.22 1020.34
1015.46 1015.70 1016.02 1016.14 1016.30 1016.50 1016.74 1016.74 1016.78 1016.78 1016.90 1016.98 1016.74 1016.78 1016.90 1016.90 1017.02 1017.14 1017.14 1017.02 1017.14 1017.22 1017.18 1017.18 1017.34 1017.58 1017.86 1017.98 1018.14 1018.14 1018.18 1018.22 1018.34 1018.38 1018.46 1018.70 1018.74 1018.62 1018.70 1018.82 1018.94 1019.06 1019.22 1019.38 1019.42 1019.30 1019.14 1018.94 1018.74 1018.74 1018.66 1018.54 1019.10 1019.42 1019.42 1019.54 1019.62 1019.78 1019.94 1020.06 1020.22 1020.30
1015.54 1015.90 1016.22 1016.26 1016.46 1016.62 1016.74 1016.74 1016.78 1016.82 1016.86 1016.78 1016.66 1016.70 1016.90 1016.98 1016.98 1016.98 1016.94 1017.06 1017.02 1017.14 1017.30 1017.46 1017.62 1017.78 1017.98 1018.02 1018.18 1018.14 1018.14 1018.30 1018.34 1018.34 1018.38 1018.54 1018.74 1018.62 1018.58 1018.58 1018.70 1018.86 1019.02 1019.14 1019.26 1019.22 1019.02 1018.74 1018.50 1018.50 1018.42 1018.34 1018.90 1019.30 1019.38 1019.46 1019.62 1019.74 1019.90 1020.02 1020.18 1020.30
1015.58 1015.94 1016.14 1016.22 1016.50 1016.62 1016.78 1016.86 1016.94 1016.90 1016.86 1016.66 1016.66 1016.66 1016.86 1016.90 1016.90 1016.86 1016.90 1017.10 1017.14 1017.30 1017.38 1017.54 1017.70 1017.82 1017.86 1018.06 1018.14 1018.22 1018.26 1018.26 1018.30 1018.34 1018.34 1018.54 1018.58 1018.62 1018.54 1018.38 1018.46 1018.66 1018.78 1018.90 1019.02 1019.06 1018.78 1018.46 1018.34 1018.38 1018.10 1018.10 1018.74 1019.18 1019.30 1019.46 1019.58 1019.74 1019.82 1019.98 1020.10 1020.18
1015.62 1015.94 1016.10 1016.26 1016.54 1016.66 1016.78 1016.98 1016.98 1016.90 1016.78 1016.70 1016.66 1016.50 1016.70 1016.78 1016.86 1017.02 1017.06 1017.10 1017.22 1017.30 1017.42 1017.54 1017.66 1017.70 1017.82 1018.02 1018.14 1018.22 1018.26 1018.26 1018.22 1018.18 1018.30 1018.46 1018.54 1018.58 1018.54 1018.34 1018.26 1018.42 1018.62 1018.70 1018.86 1018.82 1018.74 1018.62 1018.46 1018.30 1018.10 1018.14 1018.58 1019.02 1019.26 1019.38 1019.54 1019.66 1019.78 1019.90 1020.02 1020.14
1015.58 1015.86 1016.06 1016.34 1016.54 1016.70 1016.70 1016.86 1016.90 1016.86 1016.82 1016.82 1016.62 1016.42 1016.62 1016.82 1016.98 1017.06 1017.06 1017.10 1017.22 1017.22 1017.30 1017.42 1017.58 1017.70 1017.74 1017.90 1018.06 1018.14 1018.18 1018.14 1018.18 1018.14 1018.22 1018.30 1018.34 1018.50 1018.50 1018.42 1018.18 1018.26 1018.46 1018.58 1018.74 1018.70 1018.74 1018.78 1018.66 1018.46 1018.30 1018.10 1018.62 1018.94 1019.34 1019.42 1019.46 1019.50 1019.74 1019.90 1020.02 1020.14
1015.58 1015.86 1016.14 1016.38 1016.54 1016.74 1016.78 1016.78 1016.82 1016.82 1016.90 1016.78 1016.54 1016.54 1016.78 1017.02 1017.10 1017.10 1016.98 1016.94 1017.02 1017.18 1017.22 1017.42 1017.58 1017.74 1017.82 1017.90 1018.02 1018.10 1018.10 1018.14 1018.14 1018.06 1018.14 1018.30 1018.30 1018.26 1018.38 1018.38 1018.22 1018.10 1018.18 1018.38 1018.54 1018.58 1018.54 1018.66 1018.58 1018.42 1018.50 1018.42 1018.78 1018.98 1019.58 1019.70 1019.54 1019.58 1019.66 1019.82 1020.02 1020.14
1015.54 1015.86 1016.10 1016.38 1016.50 1016.58 1016.66 1016.66 1016.74 1016.82 1016.82 1016.70 1016.62 1016.58 1016.86 1017.14 1017.10 1017.02 1016.98 1016.82 1016.82 1017.06 1017.26 1017.46 1017.62 1017.66 1017.70 1017.86 1017.98 1018.10 1018.18 1018.14 1018.06 1018.06 1018.06 1018.18 1018.34 1018.30 1018.26 1018.30 1018.30 1018.10 1018.18 1018.34 1018.46 1018.62 1018.74 1019.58 1019.62 1019.70 1019.26 1018.70 1018.62 1018.82 1018.94 1019.38 1019.46 1019.54 1019.62 1019.74 1019.94 1020.14
1015.50 1015.86 1016.10 1016.22 1016.30 1016.50 1016.54 1016.62 1016.58 1016.62 1016.62 1016.58 1016.46 1016.54 1016.82 1016.94 1016.86 1016.90 1016.98 1016.90 1016.86 1017.02 1017.22 1017.34 1017.46 1017.58 1017.54 1017.66 1017.78 1017.94 1018.10 1018.14 1017.94 1017.94 1017.98 1017.98 1018.26 1018.34 1018.38 1018.46 1018.42 1018.30 1018.38 1018.50 1018.50 1018.74 1019.58 1020.18 1019.90 1019.94 1019.66 1019.66 1019.30 1019.18 1019.18 1019.54 1019.34 1019.38 1019.38 1019.54 1019.74 1020.02
1015.50 1015.82 1015.98 1016.26 1016.34 1016.42 1016.46 1016.54 1016.54 1016.50 1016.50 1016.38 1016.42 1016.50 1016.62 1016.70 1016.62 1016.62 1016.66 1016.78 1016.78 1016.90 1017.02 1017.14 1017.30 1017.46 1017.46 1017.42 1017.66 1017.86 1017.86 1017.82 1017.82 1017.86 1017.94 1017.98 1018.10 1018.22 1018.30 1018.38 1018.30 1018.46 1018.54 1018.58 1018.66 1019.06 1019.14 1019.42 1019.70 1020.14 1020.26 1019.90 1020.38 1019.82 1020.26 1020.86 1019.82 1019.38 1019.38 1019.50 1019.58 1019.90
1015.50 1015.86 1016.06 1016.22 1016.22 1016.26 1016.38 1016.42 1016.54 1016.54 1016.42 1016.26 1016.14 1016.26 1016.66 1016.82 1016.78 1016.66 1016.62 1016.70 1016.70 1016.74 1016.82 1016.90 1017.02 1017.10 1017.10 1017.06 1017.38 1017.46 1017.46 1017.50 1017.58 1017.70 1017.78 1017.90 1018.02 1018.22 1018.22 1018.26 1018.30 1018.46 1018.78 1018.86 1019.10 1019.06 1018.86 1019.10 1019.70 1019.94 1020.06 1019.50 1019.74 1020.74 1020.54 1020.34 1020.62 1019.86 1019.50 1019.50 1019.62 1019.82
1015.54 1015.86 1016.06 1016.10 1016.18 1016.26 1016.30 1016.42 1016.46 1016.50 1016.42 1016.26 1016.14 1016.14 1016.50 1016.66 1016.82 1016.82 1016.70 1016.66 1016.58 1016.54 1016.62 1016.70 1016.70 1016.66 1016.58 1016.62 1016.98 1017.10 1017.10 1017.22 1017.26 1017.42 1017.58 1017.66 1017.86 1017.94 1018.10 1018.22 1018.26 1018.34 1018.50 1019.02 1019.06 1019.06 1019.06 1019.06 1019.50 1019.74 1019.98 1019.54 1019.70 1019.78 1020.58 1020.26 1020.46 1020.94 1020.22 1019.74 1019.78 1019.86
1015.34 1015.62 1015.78 1015.90 1016.02 1016.22 1016.26 1016.22 1016.30 1016.42 1016.50 1016.50 1016.30 1016.26 1016.34 1016.54 1016.70 1016.74 1016.66 1016.58 1016.46 1016.38 1016.42 1016.46 1016.46 1016.46 1016.42 1016.26 1016.42 1016.86 1016.94 1016.98 1016.98 1017.10 1017.30 1017.50 1017.62 1017.66 1017.82 1017.98 1018.18 1018.26 1018.42 1018.90 1019.34 1019.34 1019.26 1019.22 1019.34 1019.90 1020.22 1019.78 1019.78 1019.90 1020.22 1020.42 1019.66 1019.82 1020.50 1020.42 1019.98 1019.98
1015.26 1015.50 1015.66 1015.78 1015.94 1016.10 1016.22 1016.26 1016.26 1016.50 1016.66 1016.58 1016.50 1016.46 1016.46 1016.74 1016.66 1016.54 1016.50 1016.34 1016.26 1016.22 1016.26 1016.26 1016.34 1016.38 1016.46 1016.30 1016.18 1016.38 1016.74 1016.90 1016.94 1017.06 1017.14 1017.26 1017.42 1017.50 1017.66 1017.78 1017.98 1018.18 1018.26 1018.50 1018.78 1019.22 1019.38 1019.22 1019.42 1019.62 1020.06 1019.78 1019.54 1019.58 1019.98 1020.74 1020.18 1019.82 1019.94 1020.34 1020.46 1019.98
1015.30 1015.34 1015.54 1015.74 1015.94 1016.22 1016.38 1016.58 1016.78 1016.70 1016.86 1016.86 1016.78 1016.70 1016.54 1016.46 1016.50 1016.46 1016.26 1016.10 1016.06 1016.06 1016.06 1016.10 1016.18 1016.22 1016.30 1016.34 1016.42 1016.42 1016.38 1016.50 1016.74 1016.94 1017.02 1017.14 1017.26 1017.38 1017.54 1017.66 1017.78 1017.94 1018.62 1018.78 1018.58 1018.54 1019.02 1019.38 1019.46 1019.50 1019.70 1019.62 1019.38 1019.22 1019.54 1020.34 1020.34 1020.18 1019.90 1019.90 1020.30 1019.98
1015.26 1015.30 1015.58 1015.86 1016.10 1016.30 1016.66 1016.78 1016.70 1016.78 1016.82 1016.70 1016.74 1016.66 1016.66 1016.38 1016.22 1016.02 1015.94 1015.90 1015.90 1015.94 1016.02 1016.06 1016.10 1016.18 1016.26 1016.34 1016.46 1016.54 1016.62 1016.58 1016.62 1016.82 1016.94 1016.98 1017.02 1017.18 1017.18 1017.30 1017.50 1017.74 1018.42 1019.02 1019.10 1018.58 1018.78 1019.06 1019.38 1019.74 1019.62 1019.66 1019.62 1019.46 1019.70 1020.10 1020.26 1020.02 1019.98 1019.90 1020.46 1020.18
1015.06 1015.22 1015.34 1015.54 1015.78 1015.98 1016.06 1016.18 1016.34 1016.46 1016.42 1016.54 1016.62 1016.74 1016.70 1016.38 1016.06 1015.78 1015.70 1015.74 1015.82 1015.90 1015.98 1016.02 1016.06 1016.10 1016.14 1016.26 1016.38 1016.50 1016.66 1016.70 1016.70 1016.74 1016.78 1016.82 1016.98 1017.06 1017.18 1017.34 1017.46 1017.82 1017.86 1018.38 1018.74 1018.58 1018.74 1018.94 1019.70 1019.70 1020.06 1020.10 1019.98 1019.74 1020.06 1020.42 1020.54 1020.30 1019.98 1019.98 1020.18 1020.10
1014.98 1015.14 1015.26 1015.26 1015.46 1015.70 1015.78 1015.74 1015.90 1016.10 1016.10 1016.30 1016.06 1015.98 1015.90 1015.70 1015.58 1015.62 1015.58 1015.66 1015.78 1015.86 1015.90 1015.90 1015.86 1015.90 1016.02 1016.06 1016.14 1016.26 1016.34 1016.42 1016.50 1016.58 1016.82 1016.98 1016.98 1017.10 1017.14 1017.22 1017.30 1017.58 1018.06 1018.02 1018.18 1018.22 1018.42 1018.18 1019.06 1019.30 1019.74 1020.14 1020.34 1020.46 1020.34 1020.50 1020.30 1020.34 1020.42 1019.90 1019.98 1019.98
1015.02 1014.98 1015.10 1015.18 1015.30 1015.46 1015.54 1015.62 1015.66 1015.78 1015.90 1015.98 1016.26 1016.02 1015.74 1015.46 1015.50 1015.58 1015.78 1015.66 1015.66 1015.70 1015.70 1015.70 1015.66 1015.70 1015.78 1015.90 1016.06 1016.22 1016.26 1016.38 1016.46 1016.46 1016.66 1016.90 1017.02 1017.06 1017.10 1017.14 1017.18 1017.30 1017.50 1018.26 1018.26 1018.50 1018.10 1018.14 1018.42 1019.18 1020.62 1020.02 1020.02 1020.14 1020.66 1020.74 1020.78 1020.18 1020.30 1020.02 1020.26 1019.94
1014.98 1015.14 1015.18 1015.22 1015.42 1015.54 1015.66 1015.82 1015.86 1015.90 1015.90 1016.06 1016.10 1016.14 1016.02 1015.86 1015.74 1015.78 1015.78 1015.78 1015.62 1015.46 1015.50 1015.54 1015.50 1015.50 1015.62 1015.78 1015.98 1016.22 1016.42 1016.50 1016.58 1016.62 1016.70 1016.82 1016.90 1016.86 1016.82 1016.82 1016.86 1017.06 1017.22 1017.50 1018.10 1018.06 1018.10 1018.14 1018.50 1018.54 1019.02 1019.46 1020.14 1020.26 1019.94 1019.78 1020.50 1020.58 1020.22 1020.14 1019.98 1019.82
1014.98 1015.06 1015.26 1015.26 1015.30 1015.58 1015.82 1016.06 1016.38 1016.70 1017.02 1017.02 1017.02 1016.70 1016.54 1016.34 1016.22 1016.22 1015.94 1015.50 1015.46 1015.38 1015.38 1015.38 1015.34 1015.42 1015.58 1015.86 1016.22 1016.42 1016.62 1016.82 1016.86 1016.86 1016.82 1016.82 1016.74 1016.74 1016.74 1016.74 1016.66 1016.74 1016.98 1016.98 1017.30 1017.90 1018.10 1018.02 1018.30 1018.54 1018.66 1018.02 1018.38 1019.18 1019.34 1019.30 1019.62 1020.58 1020.10 1019.82 1019.82 1019.90
1015.10 1015.18 1015.18 1015.34 1015.38 1015.62 1015.98 1016.10 1016.34 1016.54 1016.70 1016.90 1017.06 1016.66 1016.06 1015.86 1015.94 1015.74 1015.54 1015.58 1015.42 1015.26 1015.14 1015.18 1015.18 1015.34 1015.70 1016.06 1016.54 1016.98 1017.22 1017.14 1017.06 1016.94 1016.78 1016.82 1016.78 1016.66 1016.50 1016.46 1016.46 1016.54 1016.58 1016.74 1016.94 1017.74 1017.78 1017.86 1018.10 1018.34 1018.42 1018.38 1018.38 1018.42 1018.70 1019.06 1019.74 1019.90 1020.54 1020.10 1019.90 1019.94
1015.06 1015.14 1015.14 1015.26 1015.42 1015.54 1015.94 1016.06 1016.14 1016.30 1016.30 1016.46 1016.50 1016.46 1016.06 1015.82 1015.62 1015.54 1015.58 1015.50 1015.34 1015.14 1014.98 1014.90 1015.06 1015.46 1016.14 1017.14 1017.70 1017.90 1017.78 1017.78 1017.30 1016.66 1016.50 1016.46 1016.50 1016.46 1016.46 1016.38 1016.34 1016.34 1016.46 1016.54 1016.62 1016.94 1017.30 1017.38 1017.74 1018.02 1017.98 1018.14 1018.34 1018.42 1018.78 1018.26 1018.18 1018.54 1019.18 1020.10 1020.22 1019.90
1015.14 1015.18 1015.22 1015.18 1015.34 1015.50 1015.62 1015.78 1015.94 1016.10 1016.30 1016.06 1015.94 1015.86 1015.74 1015.66 1015.74 1015.74 1015.86 1015.58 1015.38 1015.22 1015.22 1015.42 1015.74 1016.10 1016.70 1017.46 1017.18 1016.70 1016.46 1016.30 1016.02 1015.90 1015.94 1016.06 1016.10 1016.18 1016.26 1016.30 1016.30 1016.34 1016.42 1016.42 1016.34 1016.42 1016.74 1017.02 1017.18 1017.46 1017.82 1018.06 1018.26 1018.66 1018.94 1018.34 1018.42 1018.18 1018.74 1019.66 1019.94 1020.02
1015.34 1015.22 1015.18 1015.26 1015.34 1015.50 1015.54 1015.62 1015.86 1015.90 1016.06 1016.10 1015.94 1015.82 1015.78 1015.98 1016.06 1015.98 1015.94 1015.74 1015.58 1015.42 1015.34 1015.82 1016.54 1016.66 1016.54 1016.18 1016.02 1016.02 1015.90 1015.98 1016.14 1016.02 1016.02 1016.06 1016.02 1016.02 1016.10 1016.14 1016.10 1016.10 1016.14 1016.18 1016.10 1016.18 1016.34 1016.54 1016.66 1016.90 1017.14 1017.54 1018.10 1018.46 1018.70 1018.50 1018.90 1018.58 1018.42 1018.42 1019.22 1019.70
1015.30 1015.18 1015.18 1015.26 1015.26 1015.50 1015.50 1015.58 1015.74 1015.86 1016.02 1016.06 1015.94 1015.98 1016.14 1016.22 1016.18 1016.14 1016.10 1015.94 1015.74 1015.46 1015.34 1015.98 1016.38 1016.10 1015.70 1016.22 1016.46 1016.14 1015.82 1015.82 1015.94 1015.98 1016.22 1016.30 1015.98 1016.26 1016.58 1016.58 1016.26 1016.02 1015.90 1015.94 1016.02 1015.94 1016.06 1016.10 1016.30 1016.62 1016.86 1017.14 1017.38 1017.66 1017.78 1017.90 1018.10 1018.18 1018.10 1018.46 1018.82 1019.34
1015.50 1015.46 1015.38 1015.38 1015.42 1015.46 1015.46 1015.50 1015.54 1015.66 1015.82 1015.82 1015.94 1016.06 1016.18 1016.30 1016.26 1016.22 1016.18 1016.06 1015.74 1015.54 1015.38 1015.70 1016.02 1015.90 1015.94 1016.22 1016.34 1016.14 1015.74 1015.66 1015.70 1015.66 1015.70 1015.42 1015.22 1015.46 1015.94 1016.34 1016.58 1016.22 1015.86 1015.90 1015.82 1015.82 1015.82 1015.94 1016.06 1016.22 1016.38 1016.54 1016.78 1016.86 1016.90 1016.94 1017.14 1017.38 1017.66 1017.70 1017.90 1018.74
1015.70 1015.54 1015.50 1015.42 1015.46 1015.50 1015.58 1015.62 1015.62 1015.70 1015.74 1015.78 1015.86 1015.90 1015.98 1016.10 1015.98 1015.98 1015.90 1015.90 1015.86 1015.78 1015.58 1015.66 1015.70 1015.66 1015.82 1016.02 1015.74 1015.46 1015.26 1015.18 1015.30 1015.34 1015.30 1015.02 1014.86 1015.14 1015.62 1015.78 1015.86 1015.98 1016.06 1016.18 1015.98 1015.78 1015.74 1015.66 1015.70 1015.94 1016.02 1016.06 1016.26 1016.46 1016.46 1016.38 1016.58 1016.94 1017.06 1017.14 1017.62 1018.50
1015.98 1015.74 1015.70 1015.66 1015.70 1015.70 1015.66 1015.62 1015.58 1015.58 1015.62 1015.66 1015.82 1015.82 1015.86 1015.86 1015.70 1015.66 1015.62 1015.62 1015.58 1015.54 1015.50 1015.50 1015.62 1015.54 1015.42 1015.14 1014.98 1014.98 1014.98 1015.22 1015.38 1015.42 1015.26 1014.82 1014.90 1014.82 1014.90 1015.18 1015.38 1015.62 1015.66 1015.66 1015.78 1015.78 1015.66 1015.46 1015.50 1015.54 1015.62 1015.98 1016.06 1016.10 1016.18 1016.26 1016.42 1016.66 1016.94 1017.18 1017.66 1017.98
1016.14 1016.06 1015.98 1016.02 1015.90 1015.86 1015.78 1015.70 1015.58 1015.50 1015.54 1015.50 1015.62 1015.62 1015.58 1015.46 1015.42 1015.38 1015.30 1015.30 1015.22 1015.18 1015.22 1015.18 1015.26 1015.10 1014.94 1014.86 1014.74 1014.78 1014.86 1014.82 1014.66 1014.74 1014.90 1014.78 1014.70 1014.70 1014.46 1014.50 1014.82 1015.10 1015.10 1015.26 1015.54 1015.62 1015.74 1015.74 1015.54 1015.58 1015.62 1015.66 1015.78 1015.94 1016.06 1016.14 1016.26 1016.42 1016.50 1016.62 1016.86 1017.34
1016.26 1016.30 1016.18 1016.06 1016.06 1015.98 1015.94 1015.78 1015.66 1015.66 1015.58 1015.50 1015.46 1015.42 1015.38 1015.22 1015.10 1014.98 1014.98 1014.98 1014.98 1014.98 1014.90 1014.86 1014.86 1014.86 1014.74 1014.66 1014.58 1014.46 1014.26 1014.26 1014.14 1014.14 1014.22 1014.42 1014.54 1014.50 1014.30 1014.26 1014.50 1014.74 1014.86 1014.86 1015.34 1015.50 1015.54 1015.74 1015.66 1015.46 1015.50 1015.54 1015.74 1015.86 1015.86 1015.94 1016.02 1016.06 1016.14 1016.22 1016.38 1016.78
1016.26 1016.22 1016.18 1016.26 1016.18 1016.02 1015.90 1015.86 1015.82 1015.70 1015.62 1015.58 1015.54 1015.58 1015.58 1015.42 1015.30 1015.10 1014.98 1014.90 1014.90 1014.78 1014.70 1014.70 1014.70 1014.62 1014.58 1014.38 1014.22 1013.94 1013.82 1013.86 1013.86 1013.86 1014.10 1014.30 1014.50 1014.66 1014.38 1014.38 1014.38 1014.46 1014.66 1014.58 1014.86 1015.22 1015.34 1015.46 1015.50 1015.46 1015.50 1015.50 1015.58 1015.70 1015.74 1015.78 1015.86 1015.86 1015.98 1016.06 1016.10 1016.38
Wind_Speed
7 7 6 6 6 6 7 11 10 13 12 11 9 10 11 12 10 11 11 11 9 6 5 4 6 4 8 4 5 5 7 6 5 6 6 5 5 6 5 6 4 3 3 3 3 2 4 7 8 8 7 6 5 4 5 8 9 7 6 6 6 5
7 7 7 6 5 5 5 7 5 6 6 7 8 8 6 4 6 4 9 8 6 6 6 5 5 6 4 5 5 7 6 7 6 6 5 5 5 5 6 6 5 3 4 3 4 1 3 5 7 8 8 7 4 4 7 7 8 7 7 5 4 6
7 6 7 6 6 6 6 5 6 6 5 7 5 5 4 4 4 5 5 6 6 6 6 5 5 6 6 8 5 8 7 7 6 6 5 4 5 5 5 6 5 4 3 5 3 3 3 3 4 7 7 3 3 3 7 8 8 7 7 5 4 10
6 6 7 7 6 6 6 6 5 5 5 4 4 4 3 3 3 4 5 5 5 4 4 5 9 12 11 6 6 8 9 7 6 6 6 4 5 4 4 5 5 5 3 3 4 4 4 3 4 4 4 3 2 3 6 7 7 7 6 7 6 11
5 5 7 7 7 5 5 6 6 6 5 5 5 5 4 3 2 3 2 3 3 2 3 4 5 5 5 5 4 4 3 4 3 3 5 3 3 3 3 3 2 4 3 4 5 5 4 5 4 4 5 4 4 5 5 7 7 7 6 5 6 12
4 5 6 7 6 5 5 5 6 6 5 5 5 4 3 1 1 1 2 1 1 2 2 3 2 4 5 5 4 3 3 3 4 3 3 4 4 4 4 4 4 4 4 4 5 5 5 4 6 5 6 4 5 6 6 6 7 7 6 6 8 14
5 6 7 7 6 5 5 5 5 5 5 4 5 5 4 2 1 0 1 0 3 2 3 3 4 4 5 4 5 4 3 3 3 3 4 4 4 4 5 5 5 5 4 5 6 6 6 7 7 5 5 5 8 7 6 7 7 7 6 6 7 13
5 7 6 6 6 6 5 6 5 5 4 4 4 3 4 3 2 4 2 1 2 3 3 4 4 3 3 2 3 2 0 0 1 2 3 4 5 5 5 5 5 4 4 5 6 6 7 8 9 5 5 6 9 7 6 7 7 7 6 6 6 10
6 8 7 7 6 5 6 5 4 5 5 5 4 3 4 4 4 3 3 1 2 3 3 4 3 2 3 2 1 1 1 1 1 2 0 5 5 5 5 6 5 5 5 5 5 5 6 6 6 5 6 4 9 7 7 7 7 7 6 6 6 8
7 7 7 6 5 5 5 6 5 4 4 4 4 4 3 4 3 1 2 1 2 2 3 3 3 1 3 2 2 2 3 2 1 2 0 2 3 3 5 5 5 4 3 5 4 5 5 5 6 4 3 5 9 8 7 8 8 8 7 6 6 6
6 7 6 6 6 5 5 5 5 4 4 4 4 4 3 2 1 2 3 1 2 3 3 3 4 3 2 3 3 4 4 2 2 2 3 4 2 2 4 3 5 5 4 5 3 1 2 4 5 5 2 4 8 8 6 7 7 8 7 6 5 4
7 7 6 8 6 6 5 5 6 5 5 5 5 4 2 1 2 2 2 2 2 3 3 2 3 2 2 3 4 4 4 3 3 2 3 3 3 2 3 4 2 3 4 3 4 2 2 3 6 7 2 5 9 8 1 5 7 8 7 7 6 5
7 7 7 9 7 6 5 5 6 5 5 5 5 4 4 4 3 3 2 3 3 2 2 3 2 1 2 3 3 3 4 4 3 3 3 2 2 2 2 4 5 1 2 3 2 2 2 8 9 11 9 2 9 8 6 7 7 8 8 7 6 5
6 7 7 7 6 5 5 5 4 5 5 5 4 4 2 1 2 4 4 3 3 2 2 3 3 2 3 4 4 4 3 2 2 3 3 3 3 2 3 3 4 3 1 4 5 1 10 6 5 5 8 8 2 3 2 4 8 8 8 8 7 6
5 7 7 6 6 6 6 5 4 4 3 3 3 3 2 1 1 1 0 0 1 1 2 3 3 4 6 6 5 4 3 4 3 2 3 3 4 3 3 4 3 2 1 2 1 6 7 4 3 5 7 6 5 6 2 6 2 7 7 7 7 6
6 7 7 8 6 7 7 6 5 4 3 3 4 2 2 3 2 0 1 1 0 1 2 3 4 6 7 6 5 5 4 4 4 4 4 4 4 4 4 3 2 1 3 2 4 1 4 4 4 2 1 1 5 7 3 2 4 2 7 6 7 7
8 8 8 6 7 6 6 5 7 7 5 3 3 3 2 4 4 3 2 2 3 4 4 5 6 6 6 5 3 3 3 4 5 5 5 5 5 4 4 4 2 1 4 4 2 3 2 4 4 4 3 0 5 4 2 2 4 7 3 6 5 7
6 7 7 7 7 6 5 5 5 7 5 4 4 3 1 2 4 4 4 5 5 6 6 6 7 7 6 6 5 5 4 5 5 5 5 5 5 4 4 4 4 3 5 5 2 1 4 3 5 2 2 2 3 3 4 3 3 6 1 3 5 6
6 6 6 6 6 5 5 4 3 6 6 5 4 4 3 3 4 5 6 7 7 7 7 5 5 6 6 5 5 4 6 6 4 5 6 6 6 5 4 3 4 4 4 4 5 5 5 5 6 7 7 2 2 3 1 4 1 5 4 2 3 5
6 7 6 5 6 5 5 6 5 4 6 6 5 4 4 5 5 6 7 8 8 7 6 7 5 5 6 6 5 5 5 2 4 4 5 5 5 5 6 5 4 4 3 2 2 4 2 3 3 4 2 3 2 3 2 4 3 3 4 4 3 4
7 7 7 6 6 6 6 5 3 6 6 6 6 6 5 5 5 6 7 7 7 7 6 6 6 5 7 6 6 5 5 5 4 5 5 6 5 5 5 5 4 4 7 5 3 3 4 4 5 1 1 4 4 2 1 2 2 3 4 4 4 3
7 7 7 6 6 6 5 5 6 6 4 6 6 6 6 7 7 7 7 7 6 6 6 6 6 6 6 7 6 6 6 7 6 6 6 4 3 3 4 4 4 3 5 8 5 7 6 7 1 4 4 3 1 1 3 1 3 1 4 4 5 5
5 5 5 5 4 3 3 3 2 2 3 2 4 7 8 8 8 8 8 6 6 6 6 6 6 6 6 7 7 6 7 6 6 6 5 5 4 5 5 6 6 6 4 3 3 5 8 8 6 5 2 2 2 2 0 1 2 3 5 5 6 6
4 4 4 4 5 4 4 4 4 3 2 2 1 1 5 7 6 5 6 6 5 7 7 7 7 6 6 6 6 7 5 5 6 6 6 6 5 6 5 5 6 6 5 5 5 6 7 6 1 10 5 6 3 4 1 6 5 3 3 2 2 5
4 5 4 4 5 4 3 3 2 2 2 2 1 3 3 5 6 5 4 5 6 6 7 7 7 7 7 7 6 5 5 4 4 5 5 6 6 7 7 7 7 7 8 7 7 4 6 6 3 4 1 5 1 1 4 3 8 5 4 4 5 5
4 5 5 4 4 4 3 2 1 2 1 2 4 5 7 7 5 5 6 5 5 6 7 7 7 7 7 5 5 4 3 3 3 4 4 5 5 5 6 7 8 8 8 7 7 6 5 4 7 6 5 2 2 2 4 3 7 5 4 2 4 2
4 4 5 4 5 3 1 1 3 4 4 4 5 6 5 5 5 6 6 5 6 6 7 8 7 6 5 4 1 1 2 2 4 4 4 5 6 8 7 7 6 7 7 7 6 7 9 7 5 5 6 7 4 2 2 4 5 4 4 3 4 5
3 4 3 4 5 6 5 5 4 3 4 5 6 6 7 6 3 4 4 5 4 7 7 7 7 4 1 9 9 5 3 4 7 7 6 7 8 7 5 5 6 6 5 6 8 8 9 8 9 6 8 7 4 0 5 2 2 7 6 8 5 3
2 2 3 4 5 6 5 3 3 2 2 4 4 5 3 2 1 1 2 4 3 4 4 4 5 6 8 8 2 4 6 9 11 10 7 7 7 7 8 8 7 6 7 7 7 7 7 8 8 7 8 8 5 4 6 3 0 0 4 6 4 7
0 1 2 4 4 3 2 2 2 2 2 3 3 3 2 3 3 2 2 3 3 5 5 5 6 8 3 4 9 9 9 9 8 7 5 5 6 7 7 7 7 7 7 9 7 7 8 6 7 6 7 7 8 5 6 1 2 2 2 3 6 8
2 1 3 5 4 3 2 3 3 2 3 4 4 2 3 3 2 2 1 4 4 5 4 0 3 2 6 4 3 6 8 6 5 7 1 5 7 2 4 6 6 7 8 8 7 8 8 7 7 7 8 8 10 11 8 7 8 6 4 4 4 5
3 4 2 2 1 2 2 2 2 3 3 2 1 2 3 4 3 3 3 4 5 5 5 2 0 3 2 3 2 6 6 6 6 5 6 8 8 7 7 6 6 6 7 6 7 7 8 8 9 8 9 9 8 8 7 7 7 8 7 6 7 7
6 5 5 4 4 3 2 1 0 0 1 0 1 2 2 3 3 3 4 4 4 5 5 1 3 5 2 2 4 7 8 8 6 5 7 9 7 7 7 8 7 7 5 5 6 7 7 9 10 9 9 8 6 7 8 5 6 7 6 5 7 7
7 7 7 7 6 6 5 4 3 2 2 1 1 1 2 2 4 4 5 5 4 4 5 1 1 3 3 5 6 6 6 3 3 4 5 8 7 6 7 8 8 7 8 7 6 7 8 9 9 8 6 7 7 7 6 5 6 6 6 6 6 9
7 7 8 7 6 6 6 5 4 3 3 2 1 1 2 2 3 3 4 5 5 3 3 2 3 6 4 6 6 5 3 3 5 5 6 8 9 8 9 8 7 9 8 6 7 7 6 7 8 8 7 8 8 6 7 6 6 6 6 6 8 8
5 4 6 7 6 5 4 5 5 5 5 3 2 2 3 3 4 3 4 3 3 2 2 1 2 3 5 6 6 6 6 6 6 6 6 7 7 8 9 8 6 6 7 6 7 8 8 7 8 9 9 7 6 8 7 7 7 6 7 7 6 7
6 5 6 5 4 5 5 5 5 5 6 6 5 5 6 6 5 4 3 3 3 2 1 1 2 3 5 6 6 8 8 6 6 5 5 6 5 4 7 6 6 7 7 8 8 9 6 7 6 7 6 8 7 6 6 6 6 6 6 6 6 7
Wind_Direction
149 154 151 134 118 118 137 141 134 128 122 123 124 127 132 135 138 142 139 132 129 130 134 143 140 145 146 138 124 141 130 124 119 108 115 127 135 133 141 137 145 173 193 196 189 250 283 294 301 309 311 326 11 54 88 105 106 106 101 106 110 120
152 158 146 127 121 127 133 129 106 114 117 124 130 133 137 144 139 147 142 144 146 152 154 160 160 161 151 155 152 156 147 139 134 126 128 138 146 150 145 152 158 175 221 222 223 228 274 288 296 300 302 321 34 34 117 116 112 109 108 110 111 107
155 155 137 122 127 137 135 122 120 119 121 131 142 143 163 163 176 167 169 167 169 171 166 161 176 171 168 160 160 164 164 157 142 139 139 149 153 165 159 151 166 184 224 250 254 272 261 271 286 293 303 341 49 35 116 115 108 112 116 112 105 112
147 141 131 125 129 144 143 134 132 126 128 138 149 164 185 191 194 200 182 182 181 163 161 170 183 183 175 162 167 170 169 167 159 151 156 152 158 158 167 172 174 188 211 261 271 266 261 249 252 269 282 302 81 114 119 117 116 116 115 118 122 127
137 122 106 118 131 147 138 126 134 132 139 149 166 180 197 214 207 207 215 184 185 150 121 130 178 166 127 151 157 170 165 160 152 152 162 177 157 161 153 159 166 177 203 239 264 264 266 260 238 250 251 249 116 135 124 118 119 117 113 115 118 118
137 104 98 107 118 122 107 113 123 135 136 156 176 171 168 163 202 255 337 62 68 74 97 95 101 142 121 134 160 177 172 180 164 171 164 193 186 164 164 180 181 184 205 228 248 262 262 243 247 216 237 246 118 134 129 117 117 117 115 120 130 128
139 112 100 102 104 101 94 98 111 125 132 158 174 160 176 197 206 248 5 44 105 69 55 51 56 63 87 127 157 187 194 200 181 182 178 191 206 184 170 185 193 197 195 212 237 244 249 247 233 211 209 233 124 136 131 125 122 120 123 123 127 132
124 107 106 111 113 108 102 104 111 118 130 164 168 172 171 190 231 206 204 189 111 130 102 73 55 65 83 88 157 173 274 298 277 218 192 198 210 204 184 185 192 207 206 211 230 242 243 238 233 214 198 190 126 137 135 130 128 126 127 128 132 138
136 118 112 116 121 117 113 109 116 136 157 175 173 196 162 189 209 207 210 196 124 115 99 93 84 96 118 134 177 214 242 270 58 335 270 218 211 210 203 194 190 201 215 222 223 248 251 224 236 218 199 172 121 136 136 133 132 132 131 130 136 144
144 126 122 117 123 124 128 127 143 155 169 171 204 206 152 187 193 162 262 212 118 111 117 128 133 137 144 186 191 211 213 205 227 232 329 232 247 258 229 200 193 196 213 234 234 239 244 266 285 252 202 123 123 140 141 141 140 141 138 136 143 141
131 128 133 128 130 134 141 143 156 169 161 175 213 211 173 163 156 228 240 218 135 140 139 138 144 173 169 172 200 223 231 187 187 205 211 218 210 273 293 243 198 202 217 238 231 171 246 270 282 293 239 124 124 133 137 140 144 141 142 142 142 137
134 135 137 129 141 154 163 162 161 162 170 190 202 205 164 155 205 215 233 238 181 158 151 153 152 165 193 185 203 218 230 203 209 202 196 227 233 225 286 291 258 211 227 221 204 199 265 302 290 290 308 129 98 100 150 164 146 147 145 144 142 139
135 140 137 139 155 163 163 165 162 164 163 180 203 197 182 169 195 198 207 215 220 182 127 121 124 165 201 203 208 218 226 222 201 201 222 206 240 273 289 296 290 286 219 169 253 265 49 9 354 340 311 184 131 151 172 161 151 149 149 148 146 144
144 135 132 144 153 153 157 158 160 163 167 188 202 197 180 161 197 179 172 189 192 174 120 125 132 190 241 218 208 206 215 226 185 187 209 233 234 253 266 274 283 335 172 186 217 50 62 10 332 331 357 332 10 48 92 165 155 155 151 149 149 149
149 136 138 142 159 157 154 164 162 170 190 207 212 207 175 96 8 349 54 148 160 135 146 167 170 182 220 214 190 192 213 212 192 172 194 220 233 248 244 263 296 332 46 214 248 78 121 178 274 12 351 19 17 78 48 311 217 148 150 149 149 152
148 142 150 164 170 159 161 167 151 161 198 224 244 214 135 109 114 60 322 321 161 190 190 198 190 195 216 210 176 193 202 208 202 193 190 197 203 222 234 256 251 63 53 31 97 171 124 148 97 68 300 66 72 16 325 47 295 150 151 150 152 156
160 153 157 156 142 152 157 169 155 164 185 217 244 256 127 124 129 155 210 218 219 214 205 205 198 202 220 220 163 186 217 218 197 192 192 193 199 201 205 222 232 111 93 94 131 167 130 121 124 138 237 11 70 126 303 72 64 334 320 154 157 155
144 141 145 148 151 149 168 176 154 154 166 185 225 245 263 105 144 176 184 205 215 214 215 207 193 188 208 226 204 184 197 217 202 192 195 192 201 186 183 185 212 106 98 101 80 172 162 155 118 94 294 72 83 35 33 302 151 136 232 286 149 156
141 142 151 147 146 150 159 165 164 142 160 175 210 235 232 175 184 184 199 207 210 210 211 211 196 181 196 217 237 219 200 196 200 200 193 189 189 187 179 178 188 173 137 114 132 181 209 156 144 168 183 137 77 74 78 262 289 149 120 28 267 143
154 154 154 155 151 154 157 166 178 166 159 172 194 219 230 230 192 195 207 209 209 204 202 203 202 188 189 198 209 229 244 213 194 208 206 197 193 189 193 187 191 174 94 69 125 136 137 136 139 157 130 126 142 159 208 192 233 132 127 147 260 150
163 156 157 161 164 156 164 181 181 174 178 174 183 184 203 228 229 219 211 210 203 201 202 201 203 192 191 193 196 189 207 237 220 212 210 215 204 198 195 192 176 147 147 164 198 182 163 148 132 86 25 133 182 176 126 179 170 132 132 139 251 168
149 159 165 165 162 158 170 186 175 188 169 178 179 188 201 213 219 218 212 207 204 200 202 201 201 196 189 193 198 196 191 205 208 209 213 215 206 198 189 189 166 160 167 180 176 175 175 133 148 167 169 163 268 283 149 43 349 295 172 164 205 156
154 137 131 126 133 144 134 140 110 137 145 165 193 196 197 206 206 205 209 205 201 201 202 208 204 199 193 198 201 202 204 197 200 197 202 210 204 205 195 188 181 173 162 164 172 177 181 185 159 166 62 61 206 215 130 204 264 233 243 168 177 146
128 124 109 99 75 70 97 97 98 91 99 114 121 256 208 212 215 214 211 204 198 198 201 206 206 201 202 201 199 205 205 204 205 197 198 203 206 214 203 198 188 184 158 167 181 195 204 198 142 137 175 204 174 150 173 205 194 251 244 125 194 167
119 119 121 109 93 89 73 54 52 56 38 17 7 311 263 226 214 213 211 211 216 196 201 206 206 205 204 204 203 208 206 212 211 208 205 210 212 215 210 203 195 187 185 182 185 169 199 190 221 287 84 132 111 198 211 163 145 226 197 169 195 175
104 108 121 119 110 110 108 119 108 119 134 234 241 244 231 225 221 216 216 217 216 206 207 210 206 205 206 200 203 211 216 217 220 223 221 225 226 225 221 208 203 195 198 196 174 161 190 199 189 202 245 227 131 164 171 176 150 205 193 218 167 193
110 115 113 125 115 80 76 216 176 185 190 198 232 262 259 251 217 221 219 211 217 216 211 210 214 204 195 189 174 335 294 260 241 239 229 227 229 225 222 217 203 199 201 187 170 179 197 199 152 190 222 253 258 247 306 138 188 107 174 187 177 172
109 114 134 136 146 156 186 192 226 223 216 207 212 217 242 242 219 211 214 220 220 226 216 211 215 216 50 35 29 1 302 290 267 237 224 222 226 230 231 228 215 209 197 191 186 179 189 184 182 190 196 218 236 269 292 272 206 164 161 170 175 162
122 142 165 149 155 169 185 195 193 182 215 260 261 261 248 242 114 359 265 299 261 249 266 310 349 20 51 48 342 233 233 224 228 228 216 224 228 224 221 220 214 204 199 201 197 189 179 187 185 183 166 206 207 179 232 224 29 34 140 160 164 173
265 185 176 155 151 157 167 193 237 256 279 270 280 300 7 52 48 29 4 319 311 313 317 16 28 39 56 180 219 233 239 233 235 240 225 235 230 230 227 225 217 206 204 202 196 186 189 181 186 178 178 170 186 195 196 193 166 203 62 151 167 181
238 195 155 155 150 174 188 183 198 211 232 269 287 339 22 10 360 358 333 289 274 257 245 225 93 220 232 204 223 250 250 246 233 231 200 257 242 225 280 268 237 217 217 202 198 194 195 193 177 173 180 183 188 190 182 182 175 182 168 169 138 166
47 48 54 83 131 214 208 206 196 184 212 247 317 330 323 305 276 256 232 255 270 275 276 55 17 238 332 32 259 263 267 259 244 222 194 219 234 217 208 216 236 231 229 203 209 192 194 195 189 184 188 192 193 186 181 172 174 172 178 186 163 160
41 31 29 35 44 52 81 346 270 324 307 90 258 271 268 260 253 252 255 259 262 270 281 254 218 243 180 198 220 237 251 250 235 218 226 224 214 219 203 209 206 213 220 217 222 203 198 202 195 188 189 193 183 184 188 175 158 172 187 160 151 147
37 26 29 31 35 30 19 19 29 65 79 76 5 299 279 248 246 233 228 244 245 244 246 242 131 260 197 215 234 233 233 273 308 272 223 237 230 219 208 204 200 188 205 206 213 221 212 203 198 201 183 179 189 187 188 179 169 167 176 153 161 158
34 26 30 27 21 17 14 12 5 18 34 31 21 324 289 260 254 239 231 230 241 233 240 224 181 244 241 231 246 255 258 223 226 231 222 237 235 233 232 213 190 185 201 195 208 214 214 211 202 198 195 189 188 187 190 185 173 190 182 180 166 162
43 34 32 27 13 7 8 5 2 5 355 349 334 322 309 300 294 283 268 249 239 224 233 250 180 198 218 231 245 252 237 214 233 231 221 225 229 230 233 223 196 182 190 186 211 218 212 205 213 200 196 184 176 195 191 188 191 189 187 177 162 156
29 26 33 23 360 358 3 8 2 14 6 0 358 358 349 339 336 332 330 325 324 301 284 280 241 215 228 231 242 252 259 244 234 242 239 228 239 257 250 240 217 198 186 191 200 214 217 209 207 201 197 185 185 187 192 192 196 189 173 159 162 163